| time (UTC) | temp C | wind direction | speed KPH | gust KPH | rain 1hr cm | rain 24hr cm | rain mn cm | humidity % | barometer mb |
| 20260505213822 | 16 | 351 | 0.0 | 0.0 | 0.00 | 0.18 | 0.00 | 81 | 1002.8 |
| 20260505213321 | 16 | 351 | 0.0 | 0.0 | 0.00 | 0.18 | 0.00 | 81 | 1002.9 |
| 20260505212821 | 17 | 351 | 0.0 | 0.0 | 0.00 | 0.18 | 0.18 | 81 | 1002.8 |
| 20260505212321 | 16 | 351 | 0.0 | 0.0 | 0.00 | 0.18 | 0.18 | 81 | 1002.8 |
| 20260505211820 | 17 | 351 | 0.0 | 0.0 | 0.00 | 0.18 | 0.18 | 81 | 1002.9 |
| 20260505211320 | 17 | 351 | 0.0 | 0.0 | 0.00 | 0.18 | 0.18 | 81 | 1003.0 |
| 20260505210820 | 16 | 351 | 0.0 | 0.0 | 0.00 | 0.18 | 0.18 | 81 | 1003.0 |
| 20260505210320 | 17 | 351 | 0.0 | 0.0 | 0.00 | 0.18 | 0.18 | 81 | 1003.0 |
| 20260505205819 | 16 | 351 | 0.0 | 0.0 | 0.00 | 0.18 | 0.18 | 81 | 1003.0 |
| 20260505205319 | 16 | 351 | 0.0 | 0.0 | 0.00 | 0.18 | 0.18 | 82 | 1003.0 |
| 20260505204819 | 16 | 351 | 0.0 | 0.0 | 0.00 | 0.18 | 0.18 | 81 | 1003.0 |
| 20260505204318 | 17 | 351 | 0.0 | 1.6 | 0.00 | 0.18 | 0.18 | 81 | 1002.9 |
| 20260505203818 | 17 | 82 | 0.0 | 0.0 | 0.00 | 0.18 | 0.18 | 81 | 1003.0 |
| 20260505203318 | 17 | 82 | 0.0 | 0.0 | 0.00 | 0.18 | 0.18 | 81 | 1003.0 |
| 20260505202818 | 17 | 82 | 0.0 | 0.0 | 0.00 | 0.18 | 0.18 | 81 | 1003.0 |
| 20260505202317 | 17 | 82 | 0.0 | 0.0 | 0.00 | 0.18 | 0.18 | 81 | 1003.0 |
| 20260505201817 | 17 | 82 | 0.0 | 0.0 | 0.00 | 0.18 | 0.18 | 81 | 1003.1 |
| 20260505201317 | 17 | 82 | 0.0 | 0.0 | 0.00 | 0.18 | 0.18 | 81 | 1003.0 |
| 20260505200817 | 17 | 82 | 0.0 | 0.0 | 0.00 | 0.18 | 0.18 | 81 | 1003.0 |
| 20260505200316 | 17 | 82 | 0.0 | 0.0 | 0.00 | 0.18 | 0.18 | 81 | 1003.0 |
| 20260505195816 | 17 | 82 | 0.0 | 0.0 | 0.00 | 0.18 | 0.18 | 81 | 1002.9 |
| 20260505195316 | 17 | 82 | 0.0 | 0.0 | 0.00 | 0.18 | 0.18 | 81 | 1002.9 |
| 20260505194815 | 17 | 82 | 0.0 | 0.0 | 0.00 | 0.18 | 0.18 | 81 | 1002.9 |
| 20260505194315 | 17 | 82 | 0.0 | 0.0 | 0.00 | 0.18 | 0.18 | 80 | 1002.9 |
| 20260505193815 | 17 | 82 | 0.0 | 0.0 | 0.00 | 0.18 | 0.18 | 81 | 1002.8 |
| 20260505193315 | 17 | 82 | 0.0 | 0.0 | 0.00 | 0.18 | 0.18 | 80 | 1002.8 |
| 20260505192814 | 17 | 82 | 0.0 | 0.0 | 0.00 | 0.18 | 0.18 | 80 | 1002.8 |
| 20260505192314 | 17 | 82 | 0.0 | 0.0 | 0.00 | 0.18 | 0.18 | 80 | 1002.8 |
| 20260505191814 | 17 | 82 | 0.0 | 0.0 | 0.00 | 0.18 | 0.18 | 80 | 1002.8 |
| 20260505191313 | 17 | 82 | 0.0 | 0.0 | 0.00 | 0.18 | 0.18 | 80 | 1002.8 |
| 20260505190813 | 17 | 82 | 0.0 | 0.0 | 0.00 | 0.18 | 0.18 | 80 | 1002.7 |
| 20260505190313 | 17 | 82 | 0.0 | 0.0 | 0.00 | 0.18 | 0.18 | 80 | 1002.7 |
| 20260505185813 | 17 | 82 | 0.0 | 0.0 | 0.00 | 0.18 | 0.18 | 80 | 1002.8 |
| 20260505185312 | 17 | 82 | 0.0 | 0.0 | 0.00 | 0.18 | 0.18 | 79 | 1002.7 |
| 20260505184812 | 17 | 82 | 0.0 | 0.0 | 0.00 | 0.18 | 0.18 | 79 | 1002.7 |
| 20260505184312 | 17 | 82 | 0.0 | 0.0 | 0.00 | 0.18 | 0.18 | 79 | 1002.7 |
| 20260505183811 | 17 | 82 | 0.0 | 0.0 | 0.00 | 0.18 | 0.18 | 79 | 1002.7 |
| 20260505183311 | 17 | 82 | 0.0 | 0.0 | 0.00 | 0.18 | 0.18 | 79 | 1002.7 |
| 20260505182811 | 17 | 82 | 0.0 | 0.0 | 0.00 | 0.18 | 0.18 | 79 | 1002.7 |
| 20260505182311 | 17 | 82 | 0.0 | 0.0 | 0.00 | 0.18 | 0.18 | 79 | 1002.7 |
| 20260505181810 | 17 | 82 | 0.0 | 0.0 | 0.00 | 0.18 | 0.18 | 79 | 1002.7 |
| 20260505181310 | 17 | 82 | 0.0 | 0.0 | 0.03 | 0.18 | 0.18 | 79 | 1002.7 |
| 20260505180810 | 17 | 82 | 0.0 | 0.0 | 0.03 | 0.18 | 0.18 | 78 | 1002.7 |
| 20260505180309 | 17 | 82 | 0.0 | 0.0 | 0.03 | 0.18 | 0.18 | 78 | 1002.7 |
| 20260505175809 | 17 | 82 | 0.0 | 0.0 | 0.03 | 0.18 | 0.18 | 78 | 1002.7 |
| 20260505175309 | 17 | 82 | 0.0 | 0.0 | 0.03 | 0.18 | 0.18 | 78 | 1002.7 |
| 20260505174809 | 17 | 82 | 0.0 | 0.0 | 0.05 | 0.18 | 0.18 | 78 | 1002.8 |
| 20260505174308 | 17 | 82 | 0.0 | 0.0 | 0.05 | 0.18 | 0.18 | 78 | 1002.8 |
| 20260505173808 | 17 | 82 | 0.0 | 0.0 | 0.05 | 0.18 | 0.18 | 78 | 1002.9 |
| 20260505173308 | 17 | 82 | 0.0 | 0.0 | 0.05 | 0.18 | 0.18 | 78 | 1002.9 |
| 20260505172807 | 17 | 82 | 0.0 | 0.0 | 0.05 | 0.18 | 0.18 | 78 | 1002.9 |
| 20260505172307 | 17 | 82 | 0.0 | 0.0 | 0.08 | 0.18 | 0.18 | 77 | 1002.9 |
| 20260505171807 | 17 | 82 | 0.0 | 0.0 | 0.08 | 0.18 | 0.18 | 77 | 1003.0 |
| 20260505171307 | 17 | 82 | 0.0 | 0.0 | 0.08 | 0.15 | 0.15 | 77 | 1003.0 |
| 20260505170806 | 17 | 82 | 0.0 | 0.0 | 0.08 | 0.15 | 0.15 | 77 | 1002.9 |
| 20260505170306 | 17 | 82 | 0.0 | 0.0 | 0.10 | 0.15 | 0.15 | 77 | 1003.0 |
| 20260505165806 | 17 | 82 | 0.0 | 0.0 | 0.10 | 0.15 | 0.15 | 77 | 1003.0 |
| 20260505165306 | 17 | 82 | 0.0 | 0.0 | 0.13 | 0.15 | 0.15 | 77 | 1003.0 |
| 20260505164805 | 17 | 82 | 0.0 | 3.2 | 0.10 | 0.13 | 0.13 | 77 | 1003.0 |
| 20260505164305 | 18 | 116 | 0.0 | 0.0 | 0.10 | 0.13 | 0.13 | 77 | 1003.0 |
| 20260505163805 | 17 | 116 | 0.0 | 6.4 | 0.10 | 0.13 | 0.13 | 77 | 1003.1 |
| 20260505163304 | 17 | 90 | 0.0 | 4.8 | 0.10 | 0.13 | 0.13 | 77 | 1003.1 |
| 20260505162804 | 18 | 106 | 0.0 | 3.2 | 0.13 | 0.13 | 0.13 | 77 | 1003.2 |
| 20260505162306 | 18 | 74 | 0.0 | 0.0 | 0.10 | 0.10 | 0.10 | 76 | 1003.2 |
| 20260505161804 | 18 | 74 | 0.0 | 6.4 | 0.10 | 0.10 | 0.10 | 76 | 1003.3 |
| 20260505161303 | 18 | 91 | 0.0 | 1.6 | 0.08 | 0.08 | 0.08 | 76 | 1003.3 |
| 20260505160803 | 18 | 8 | 0.0 | 6.4 | 0.08 | 0.08 | 0.08 | 75 | 1003.3 |
| 20260505160303 | 18 | 309 | 1.6 | 6.4 | 0.05 | 0.05 | 0.05 | 74 | 1003.3 |
| 20260505153301 | 19 | 49 | 3.2 | 4.8 | 0.03 | 0.03 | 0.03 | 70 | 1003.4 |
| 20260505152801 | 19 | 23 | 0.0 | 8.0 | 0.00 | 0.00 | 0.00 | 69 | 1003.3 |
| 20260505152300 | 19 | 30 | 0.0 | 4.8 | 0.00 | 0.00 | 0.00 | 69 | 1003.3 |
| 20260505151800 | 19 | 54 | 0.0 | 4.8 | 0.00 | 0.00 | 0.00 | 69 | 1003.2 |
| 20260505151300 | 19 | 94 | 0.0 | 8.0 | 0.00 | 0.00 | 0.00 | 68 | 1003.2 |
| 20260505150800 | 20 | 12 | 0.0 | 9.7 | 0.00 | 0.00 | 0.00 | 68 | 1003.2 |
| 20260505150259 | 20 | 142 | 1.6 | 4.8 | 0.00 | 0.00 | 0.00 | 69 | 1003.2 |
| 20260505140256 | 21 | 109 | 0.0 | 12.9 | 0.00 | 0.00 | 0.00 | 59 | 1003.2 |
| 20260505130252 | 22 | 122 | 0.0 | 3.2 | 0.00 | 0.00 | 0.00 | 48 | 1003.1 |
| 20260505124752 | 22 | 102 | 0.0 | 4.8 | 0.00 | 0.00 | 0.00 | 48 | 1003.2 |
| 20260505124251 | 22 | 136 | 0.0 | 0.0 | 0.00 | 0.00 | 0.00 | 48 | 1003.2 |
| 20260505123751 | 22 | 136 | 0.0 | 4.8 | 0.00 | 0.00 | 0.00 | 47 | 1003.3 |
| 20260505123251 | 22 | 329 | 0.0 | 1.6 | 0.00 | 0.00 | 0.00 | 46 | 1003.3 |
| 20260505122750 | 23 | 329 | 1.6 | 4.8 | 0.00 | 0.00 | 0.00 | 46 | 1003.3 |
| 20260505122250 | 23 | 14 | 0.0 | 3.2 | 0.00 | 0.00 | 0.00 | 45 | 1003.4 |
| 20260505121750 | 23 | 116 | 0.0 | 0.0 | 0.00 | 0.00 | 0.00 | 45 | 1003.4 |
| 20260505121250 | 23 | 116 | 0.0 | 4.8 | 0.00 | 0.00 | 0.00 | 44 | 1003.4 |
| 20260505120749 | 23 | 108 | 1.6 | 1.6 | 0.00 | 0.00 | 0.00 | 44 | 1003.4 |
| 20260505120249 | 23 | 120 | 0.0 | 4.8 | 0.00 | 0.00 | 0.00 | 44 | 1003.5 |
| 20260505115749 | 23 | 150 | 0.0 | 0.0 | 0.00 | 0.00 | 0.00 | 45 | 1003.5 |
| 20260505115248 | 23 | 150 | 0.0 | 0.0 | 0.00 | 0.00 | 0.00 | 46 | 1003.6 |
| 20260505114748 | 23 | 36 | 0.0 | 0.0 | 0.00 | 0.00 | 0.00 | 46 | 1003.6 |
| 20260505114248 | 23 | 36 | 0.0 | 0.0 | 0.00 | 0.00 | 0.00 | 46 | 1003.6 |
| 20260505113748 | 23 | 36 | 0.0 | 3.2 | 0.00 | 0.00 | 0.00 | 45 | 1003.7 |
| 20260505113247 | 23 | 99 | 0.0 | 8.0 | 0.00 | 0.00 | 0.00 | 45 | 1003.8 |
| 20260505112747 | 23 | 258 | 0.0 | 0.0 | 0.00 | 0.00 | 0.00 | 45 | 1003.8 |
| 20260505112247 | 23 | 258 | 0.0 | 0.0 | 0.00 | 0.00 | 0.00 | 46 | 1003.9 |
| 20260505111747 | 23 | 258 | 0.0 | 0.0 | 0.00 | 0.00 | 0.00 | 46 | 1004.0 |
| 20260505111246 | 23 | 267 | 0.0 | 1.6 | 0.00 | 0.00 | 0.00 | 47 | 1004.0 |
| 20260505110746 | 23 | 246 | 0.0 | 6.4 | 0.00 | 0.00 | 0.00 | 47 | 1004.0 |
| 20260505110246 | 23 | 194 | 1.6 | 4.8 | 0.00 | 0.00 | 0.00 | 48 | 1004.0 |
| 20260505101743 | 22 | 185 | 0.0 | 3.2 | 0.00 | 0.00 | 0.00 | 50 | 1004.4 |
| 20260505101243 | 22 | 232 | 0.0 | 0.0 | 0.00 | 0.00 | 0.00 | 51 | 1004.5 |
| 20260505100743 | 22 | 232 | 0.0 | 0.0 | 0.00 | 0.00 | 0.00 | 51 | 1004.5 |
| 20260505100242 | 22 | 230 | 0.0 | 0.0 | 0.00 | 0.00 | 0.00 | 51 | 1004.5 |
| 20260505095742 | 22 | 230 | 0.0 | 0.0 | 0.00 | 0.00 | 0.00 | 51 | 1004.5 |
| 20260505095242 | 22 | 230 | 0.0 | 0.0 | 0.00 | 0.00 | 0.00 | 52 | 1004.5 |
| 20260505094741 | 21 | 230 | 0.0 | 1.6 | 0.00 | 0.00 | 0.00 | 53 | 1004.6 |
| 20260505094241 | 21 | 216 | 0.0 | 3.2 | 0.00 | 0.00 | 0.00 | 54 | 1004.6 |
| 20260505093741 | 21 | 234 | 0.0 | 6.4 | 0.00 | 0.00 | 0.00 | 54 | 1004.5 |
| 20260505093241 | 21 | 250 | 0.0 | 4.8 | 0.00 | 0.00 | 0.00 | 55 | 1004.6 |
| 20260505092740 | 21 | 267 | 3.2 | 3.2 | 0.00 | 0.00 | 0.00 | 56 | 1004.6 |
| 20260505092240 | 21 | 137 | 0.0 | 0.0 | 0.00 | 0.00 | 0.00 | 56 | 1004.7 |
| 20260505091740 | 21 | 137 | 0.0 | 3.2 | 0.00 | 0.00 | 0.00 | 57 | 1004.7 |
| 20260505091239 | 21 | 53 | 0.0 | 4.8 | 0.00 | 0.00 | 0.00 | 57 | 1004.8 |
| 20260505090739 | 21 | 161 | 3.2 | 3.2 | 0.00 | 0.00 | 0.00 | 58 | 1004.9 |
| 20260505090239 | 20 | 59 | 1.6 | 6.4 | 0.00 | 0.00 | 0.00 | 59 | 1004.8 |
| 20260505085739 | 20 | 99 | 1.6 | 4.8 | 0.00 | 0.00 | 0.00 | 59 | 1004.9 |
| 20260505085238 | 20 | 222 | 0.0 | 0.0 | 0.00 | 0.00 | 0.00 | 60 | 1005.0 |
| 20260505084738 | 20 | 222 | 0.0 | 1.6 | 0.00 | 0.00 | 0.00 | 60 | 1005.0 |
| 20260505084238 | 20 | 239 | 0.0 | 4.8 | 0.00 | 0.00 | 0.00 | 60 | 1005.0 |
| 20260505083737 | 20 | 258 | 0.0 | 6.4 | 0.00 | 0.00 | 0.00 | 61 | 1005.1 |
| 20260505083237 | 20 | 163 | 1.6 | 3.2 | 0.00 | 0.00 | 0.00 | 61 | 1005.1 |
| 20260505082737 | 20 | 237 | 3.2 | 4.8 | 0.00 | 0.00 | 0.00 | 62 | 1005.1 |
| 20260505082237 | 20 | 267 | 1.6 | 4.8 | 0.00 | 0.00 | 0.00 | 62 | 1005.1 |
| 20260505081736 | 20 | 292 | 0.0 | 1.6 | 0.00 | 0.00 | 0.00 | 63 | 1005.2 |
| 20260505081236 | 19 | 212 | 0.0 | 0.0 | 0.00 | 0.00 | 0.00 | 62 | 1005.3 |
| 20260505080736 | 20 | 212 | 0.0 | 8.0 | 0.00 | 0.00 | 0.00 | 63 | 1005.2 |
| 20260505080235 | 19 | 206 | 1.6 | 1.6 | 0.00 | 0.00 | 0.00 | 63 | 1005.2 |
| 20260505075735 | 19 | 217 | 0.0 | 1.6 | 0.00 | 0.00 | 0.00 | 64 | 1005.3 |
| 20260505075235 | 19 | 260 | 0.0 | 3.2 | 0.00 | 0.00 | 0.00 | 65 | 1005.3 |
| 20260505074735 | 18 | 258 | 1.6 | 4.8 | 0.00 | 0.00 | 0.00 | 65 | 1005.4 |
| 20260505074234 | 18 | 247 | 0.0 | 6.4 | 0.00 | 0.00 | 0.00 | 66 | 1005.5 |
| 20260505073734 | 18 | 225 | 0.0 | 1.6 | 0.00 | 0.00 | 0.00 | 66 | 1005.5 |
| 20260505073234 | 18 | 126 | 0.0 | 6.4 | 0.00 | 0.00 | 0.00 | 66 | 1005.5 |
| 20260505072733 | 18 | 241 | 0.0 | 0.0 | 0.00 | 0.00 | 0.00 | 67 | 1005.6 |
| 20260505072233 | 18 | 241 | 0.0 | 3.2 | 0.00 | 0.00 | 0.00 | 67 | 1005.6 |
| 20260505071733 | 18 | 281 | 0.0 | 4.8 | 0.00 | 0.00 | 0.00 | 67 | 1005.7 |
| 20260505071233 | 18 | 241 | 0.0 | 0.0 | 0.00 | 0.00 | 0.00 | 68 | 1005.8 |
| 20260505070732 | 18 | 264 | 0.0 | 3.2 | 0.00 | 0.00 | 0.00 | 68 | 1005.8 |
| 20260505070232 | 18 | 257 | 0.0 | 0.0 | 0.00 | 0.00 | 0.00 | 69 | 1005.8 |
| 20260505065732 | 18 | 253 | 0.0 | 1.6 | 0.00 | 0.00 | 0.00 | 69 | 1005.8 |
| 20260505065231 | 17 | 236 | 0.0 | 1.6 | 0.00 | 0.00 | 0.00 | 69 | 1005.7 |
| 20260505064731 | 18 | 240 | 0.0 | 3.2 | 0.00 | 0.00 | 0.00 | 70 | 1005.7 |
| 20260505064231 | 17 | 195 | 0.0 | 0.0 | 0.00 | 0.00 | 0.00 | 70 | 1005.7 |
| 20260505063731 | 17 | 195 | 0.0 | 0.0 | 0.00 | 0.00 | 0.00 | 71 | 1005.7 |
| 20260505063230 | 17 | 195 | 0.0 | 4.8 | 0.00 | 0.00 | 0.00 | 71 | 1005.6 |
| 20260505062730 | 17 | 254 | 3.2 | 3.2 | 0.00 | 0.00 | 0.00 | 71 | 1005.6 |
| 20260505062230 | 17 | 219 | 0.0 | 0.0 | 0.00 | 0.00 | 0.00 | 71 | 1005.6 |
| 20260505061729 | 17 | 219 | 0.0 | 0.0 | 0.00 | 0.00 | 0.00 | 71 | 1005.6 |
| 20260505061229 | 17 | 219 | 0.0 | 0.0 | 0.00 | 0.00 | 0.00 | 71 | 1005.7 |
| 20260505060729 | 17 | 219 | 0.0 | 0.0 | 0.00 | 0.00 | 0.00 | 72 | 1005.7 |
| 20260505060229 | 17 | 219 | 0.0 | 0.0 | 0.00 | 0.00 | 0.00 | 72 | 1005.7 |
| 20260505055728 | 17 | 265 | 0.0 | 0.0 | 0.00 | 0.00 | 0.00 | 72 | 1005.7 |
| 20260505055228 | 17 | 244 | 0.0 | 0.0 | 0.00 | 0.00 | 0.00 | 73 | 1005.7 |
| 20260505054728 | 17 | 244 | 0.0 | 0.0 | 0.00 | 0.00 | 0.00 | 73 | 1005.7 |
| 20260505054227 | 17 | 244 | 0.0 | 1.6 | 0.00 | 0.00 | 0.00 | 73 | 1005.7 |
| 20260505053727 | 17 | 225 | 0.0 | 0.0 | 0.00 | 0.00 | 0.00 | 73 | 1005.7 |
| 20260505053227 | 17 | 225 | 0.0 | 0.0 | 0.00 | 0.00 | 0.00 | 73 | 1005.6 |
| 20260505052727 | 16 | 225 | 0.0 | 1.6 | 0.00 | 0.00 | 0.00 | 73 | 1005.7 |
| 20260505052226 | 17 | 251 | 0.0 | 0.0 | 0.00 | 0.00 | 0.00 | 73 | 1005.6 |
| 20260505051726 | 16 | 233 | 0.0 | 0.0 | 0.00 | 0.00 | 0.00 | 73 | 1005.6 |
| 20260505051226 | 17 | 233 | 0.0 | 0.0 | 0.00 | 0.00 | 0.00 | 74 | 1005.6 |
| 20260505050726 | 16 | 233 | 0.0 | 0.0 | 0.00 | 0.00 | 0.00 | 74 | 1005.6 |
| 20260505050225 | 16 | 233 | 0.0 | 0.0 | 0.00 | 0.00 | 0.00 | 74 | 1005.7 |
| 20260505041723 | 16 | 233 | 0.0 | 0.0 | 0.00 | 0.00 | 0.00 | 73 | 1005.8 |
| 20260505041222 | 16 | 233 | 0.0 | 0.0 | 0.00 | 0.00 | 0.00 | 73 | 1005.7 |
| 20260505040722 | 16 | 233 | 0.0 | 0.0 | 0.00 | 0.00 | 0.00 | 73 | 1005.8 |
| 20260505040222 | 16 | 233 | 0.0 | 0.0 | 0.00 | 0.00 | 0.00 | 73 | 1005.8 |
| 20260505035722 | 16 | 233 | 0.0 | 0.0 | 0.00 | 0.00 | 0.00 | 72 | 1005.8 |
| 20260505035221 | 16 | 233 | 0.0 | 0.0 | 0.00 | 0.00 | 0.00 | 72 | 1005.8 |
| 20260505034721 | 17 | 233 | 0.0 | 0.0 | 0.00 | 0.00 | 0.00 | 72 | 1005.9 |
| 20260505034221 | 16 | 233 | 0.0 | 0.0 | 0.00 | 0.00 | 0.00 | 72 | 1005.8 |
| 20260505033720 | 16 | 233 | 0.0 | 0.0 | 0.00 | 0.00 | 0.00 | 72 | 1005.9 |
| 20260505033220 | 16 | 233 | 0.0 | 0.0 | 0.00 | 0.00 | 0.00 | 72 | 1005.9 |
| 20260505032720 | 16 | 233 | 0.0 | 0.0 | 0.00 | 0.00 | 0.00 | 72 | 1006.0 |
| 20260505032220 | 17 | 233 | 0.0 | 0.0 | 0.00 | 0.00 | 0.00 | 72 | 1006.0 |
| 20260505031719 | 16 | 233 | 0.0 | 0.0 | 0.00 | 0.00 | 0.00 | 72 | 1006.1 |
| 20260505031219 | 17 | 233 | 0.0 | 0.0 | 0.00 | 0.00 | 0.00 | 72 | 1006.2 |
| 20260505030719 | 17 | 233 | 0.0 | 0.0 | 0.00 | 0.00 | 0.00 | 72 | 1006.2 |
| 20260505030218 | 17 | 233 | 0.0 | 0.0 | 0.00 | 0.00 | 0.00 | 72 | 1006.3 |
| 20260505025718 | 17 | 233 | 0.0 | 0.0 | 0.00 | 0.00 | 0.00 | 72 | 1006.4 |
| 20260505025218 | 16 | 233 | 0.0 | 0.0 | 0.00 | 0.00 | 0.00 | 72 | 1006.4 |
| 20260505024718 | 16 | 233 | 0.0 | 0.0 | 0.00 | 0.00 | 0.00 | 72 | 1006.4 |
| 20260505024217 | 17 | 233 | 0.0 | 0.0 | 0.00 | 0.00 | 0.00 | 72 | 1006.4 |
| 20260505023717 | 17 | 233 | 0.0 | 0.0 | 0.00 | 0.00 | 0.00 | 72 | 1006.5 |
| 20260505023217 | 17 | 233 | 0.0 | 0.0 | 0.00 | 0.00 | 0.00 | 72 | 1006.5 |
| 20260505022716 | 17 | 233 | 0.0 | 0.0 | 0.00 | 0.00 | 0.00 | 72 | 1006.6 |
| 20260505022216 | 17 | 233 | 0.0 | 0.0 | 0.00 | 0.00 | 0.00 | 72 | 1006.6 |
| 20260505021716 | 17 | 233 | 0.0 | 0.0 | 0.00 | 0.00 | 0.00 | 71 | 1006.8 |
| 20260505021216 | 17 | 233 | 0.0 | 0.0 | 0.00 | 0.00 | 0.00 | 71 | 1006.8 |
| 20260505020715 | 17 | 233 | 0.0 | 0.0 | 0.00 | 0.00 | 0.00 | 71 | 1006.9 |
| 20260505020215 | 17 | 233 | 0.0 | 0.0 | 0.00 | 0.00 | 0.00 | 71 | 1007.0 |
| 20260505015715 | 17 | 233 | 0.0 | 0.0 | 0.00 | 0.00 | 0.00 | 71 | 1007.0 |
| 20260505015214 | 17 | 233 | 0.0 | 0.0 | 0.00 | 0.00 | 0.00 | 71 | 1007.0 |
| 20260505014714 | 17 | 233 | 0.0 | 0.0 | 0.00 | 0.00 | 0.00 | 70 | 1007.0 |
| 20260505014214 | 17 | 233 | 0.0 | 0.0 | 0.00 | 0.00 | 0.00 | 70 | 1007.1 |
| 20260505013714 | 17 | 233 | 0.0 | 0.0 | 0.00 | 0.00 | 0.00 | 70 | 1007.1 |
| 20260505013213 | 17 | 233 | 0.0 | 0.0 | 0.00 | 0.00 | 0.00 | 70 | 1007.1 |
| 20260505012713 | 17 | 233 | 0.0 | 0.0 | 0.00 | 0.00 | 0.00 | 69 | 1007.1 |
| 20260505012213 | 17 | 233 | 0.0 | 0.0 | 0.00 | 0.00 | 0.00 | 69 | 1007.2 |
| 20260505011712 | 17 | 233 | 0.0 | 0.0 | 0.00 | 0.00 | 0.00 | 69 | 1007.2 |
| 20260505011212 | 17 | 233 | 0.0 | 1.6 | 0.00 | 0.00 | 0.00 | 68 | 1007.1 |
| 20260505010712 | 17 | 270 | 0.0 | 0.0 | 0.00 | 0.00 | 0.00 | 68 | 1007.1 |
| 20260505010212 | 17 | 267 | 0.0 | 0.0 | 0.00 | 0.00 | 0.00 | 68 | 1007.0 |
| 20260505005711 | 17 | 267 | 0.0 | 1.6 | 0.00 | 0.00 | 0.00 | 68 | 1007.0 |
| 20260505005211 | 17 | 132 | 0.0 | 0.0 | 0.00 | 0.00 | 0.00 | 68 | 1007.0 |
| 20260505004711 | 17 | 132 | 0.0 | 0.0 | 0.00 | 0.00 | 0.00 | 68 | 1007.1 |
| 20260505004211 | 17 | 132 | 0.0 | 0.0 | 0.00 | 0.00 | 0.00 | 68 | 1007.2 |
| 20260505003710 | 17 | 132 | 0.0 | 0.0 | 0.00 | 0.00 | 0.00 | 68 | 1007.2 |
| 20260505003210 | 17 | 132 | 0.0 | 1.6 | 0.00 | 0.00 | 0.00 | 68 | 1007.3 |
| 20260505002710 | 17 | 312 | 0.0 | 0.0 | 0.00 | 0.00 | 0.00 | 69 | 1007.5 |
| 20260505002209 | 17 | 312 | 0.0 | 0.0 | 0.00 | 0.00 | 0.00 | 69 | 1007.4 |
| 20260505001709 | 17 | 312 | 0.0 | 0.0 | 0.00 | 0.00 | 0.00 | 69 | 1007.5 |
| 20260505001209 | 17 | 90 | 0.0 | 0.0 | 0.00 | 0.00 | 0.00 | 69 | 1007.6 |
| 20260505000709 | 17 | 90 | 0.0 | 0.0 | 0.00 | 0.00 | 0.00 | 69 | 1007.7 |
| 20260505000208 | 17 | 90 | 0.0 | 0.0 | 0.00 | 0.00 | 0.00 | 69 | 1007.7 |
| 20260504235708 | 17 | 90 | 0.0 | 1.6 | 0.00 | 0.00 | 0.00 | 69 | 1007.8 |
| 20260504235208 | 17 | 150 | 0.0 | 3.2 | 0.00 | 0.00 | 0.00 | 69 | 1007.8 |
| 20260504234707 | 17 | 267 | 0.0 | 0.0 | 0.00 | 0.00 | 0.00 | 69 | 1007.9 |
| 20260504234207 | 17 | 267 | 0.0 | 0.0 | 0.00 | 0.00 | 0.00 | 69 | 1007.9 |
| 20260504233707 | 17 | 267 | 0.0 | 0.0 | 0.00 | 0.00 | 0.00 | 69 | 1008.0 |
| 20260504233207 | 17 | 267 | 0.0 | 0.0 | 0.00 | 0.00 | 0.00 | 69 | 1008.1 |
| 20260504232706 | 17 | 267 | 0.0 | 0.0 | 0.00 | 0.00 | 0.00 | 69 | 1008.0 |
| 20260504232206 | 17 | 267 | 0.0 | 0.0 | 0.00 | 0.00 | 0.00 | 69 | 1008.0 |
| 20260504231706 | 17 | 267 | 0.0 | 0.0 | 0.00 | 0.00 | 0.00 | 68 | 1008.0 |
| 20260504231205 | 17 | 267 | 0.0 | 0.0 | 0.00 | 0.00 | 0.00 | 68 | 1008.1 |
| 20260504230705 | 17 | 267 | 0.0 | 0.0 | 0.00 | 0.00 | 0.00 | 68 | 1008.1 |
| 20260504230205 | 17 | 267 | 0.0 | 1.6 | 0.00 | 0.00 | 0.00 | 68 | 1008.2 |
| 20260504225705 | 18 | 253 | 0.0 | 0.0 | 0.00 | 0.00 | 0.00 | 68 | 1008.2 |
| 20260504225204 | 18 | 253 | 0.0 | 0.0 | 0.00 | 0.00 | 0.00 | 69 | 1008.2 |
| 20260504224704 | 18 | 253 | 0.0 | 0.0 | 0.00 | 0.00 | 0.00 | 68 | 1008.3 |
| 20260504224204 | 18 | 253 | 0.0 | 0.0 | 0.00 | 0.00 | 0.00 | 68 | 1008.3 |
| 20260504223703 | 18 | 253 | 0.0 | 0.0 | 0.00 | 0.00 | 0.00 | 67 | 1008.3 |
| 20260504223203 | 18 | 253 | 0.0 | 0.0 | 0.00 | 0.00 | 0.00 | 67 | 1008.4 |
| 20260504222703 | 18 | 262 | 0.0 | 0.0 | 0.00 | 0.00 | 0.00 | 67 | 1008.4 |
| 20260504222203 | 18 | 262 | 0.0 | 0.0 | 0.00 | 0.00 | 0.00 | 67 | 1008.5 |
| 20260504221702 | 18 | 262 | 0.0 | 0.0 | 0.00 | 0.00 | 0.00 | 66 | 1008.8 |
| 20260504221202 | 18 | 262 | 0.0 | 0.0 | 0.00 | 0.00 | 0.00 | 66 | 1008.8 |
| 20260504220702 | 18 | 262 | 0.0 | 0.0 | 0.00 | 0.00 | 0.00 | 65 | 1008.9 |
| 20260504220201 | 18 | 262 | 0.0 | 0.0 | 0.00 | 0.00 | 0.00 | 65 | 1008.9 |
| 20260504215701 | 18 | 262 | 0.0 | 0.0 | 0.00 | 0.00 | 0.00 | 65 | 1009.0 |
| 20260504215201 | 18 | 262 | 0.0 | 0.0 | 0.00 | 0.00 | 0.00 | 65 | 1009.0 |
| 20260504214701 | 18 | 262 | 0.0 | 0.0 | 0.00 | 0.00 | 0.00 | 64 | 1009.0 |